This is the latest recevied weather packets stored in our database for station/object W8RSN-13. If no packets are shown the sender has not sent any weather packets the latest 10 day(s).
| Time | Temp. | Humidity | Pressure | Rain* | Wind** | Luminosity | Snow |
|---|---|---|---|---|---|---|---|
| 1788250760 | 18.89° C | 73% | 1016.7 hPa | - | - | - | - |
| 1788250460 | 18.33° C | 70% | 1016.4 hPa | - | - | - | - |
| 1788250159 | 18.33° C | 69% | 1016.6 hPa | - | - | - | - |
| 1788249864 | 18.89° C | 68% | 1016.4 hPa | - | - | - | - |
| 1788249557 | 18.89° C | 68% | 1016.6 hPa | - | - | - | - |
| 1788249256 | 18.89° C | 68% | 1016.7 hPa | - | - | - | - |
| 1788248956 | 18.89° C | 70% | 1016.6 hPa | - | - | - | - |
| 1788248674 | 19.44° C | 71% | 1016.6 hPa | - | - | - | - |
| 1788248374 | 19.44° C | 72% | 1016.6 hPa | - | - | - | - |
| 1788248073 | 19.44° C | 69% | 1016.7 hPa | - | - | - | - |
| 1788247772 | 19.44° C | 68% | 1016.7 hPa | - | - | - | - |
| 1788247471 | 19.44° C | 67% | 1016.5 hPa | - | - | - | - |
| 1788247170 | 19.44° C | 70% | 1016.4 hPa | - | - | - | - |
| 1788246869 | 19.44° C | 68% | 1016.6 hPa | - | - | - | - |
| 1788246568 | 19.44° C | 69% | 1016.5 hPa | - | - | - | - |
| 1788246268 | 20° C | 67% | 1016.6 hPa | - | - | - | - |
| 1788245967 | 20° C | 66% | 1016.4 hPa | - | - | - | - |
| 1788245666 | 20° C | 70% | 1016.4 hPa | - | - | - | - |
| 1788245365 | 20.56° C | 70% | 1016.6 hPa | - | - | - | - |
| 1788245064 | 20.56° C | 69% | 1016.4 hPa | - | - | - | - |
| 1788244763 | 20.56° C | 67% | 1016.3 hPa | - | - | - | - |
| 1788244462 | 20.56° C | 67% | 1016.1 hPa | - | - | - | - |
| 1788244161 | 21.11° C | 66% | 1016.3 hPa | - | - | - | - |
| 1788243860 | 21.11° C | 63% | 1016.3 hPa | - | - | - | - |
| 1788243560 | 21.11° C | 60% | 1016.3 hPa | - | - | - | - |
* Rain since midnight (hover to see other rain measurements)
** Current wind speed in m/s (hover to see current wind gust speed)